sat.trackr.live / text

‹ back to catalog

STARLINK-34956

NORAD 65174 · 2025-175A

PAYLOAD ACTIVE UNKNOWN

§ Identity

Operator
Country
US
Launch date
2025-08-14
Launch site
AFWTR
Launch vehicle
Mass (kg)
RCS (m²)

Purposes: comms

External: N2YO · Heavens-Above · Gunter

§ Orbital elements

Epoch: 2026-09-20T14:21:46.172448Z

Period
93.91 min
Inclination
97.2845°
Eccentricity
0.0001771
Mean motion
15.33448471 rev/d
Perigee alt
464.3 km
Apogee alt
466.7 km
Semi-major
6,843.7 km
B*
3.6729e-4
RAAN
132.5126°
Arg perigee
86.2564°
Mean anomaly
273.8882°
Rev number
6,211

§ Raw data

STARLINK-349561 65174U 25175A   26263.59845107  .00011802  00000+0  36729-3 0  99922 65174  97.2845 132.5126 0001771  86.2564 273.8882 15.33448471 62115

JSON: /api/v1/satellites/65174 · /tle

For live sub-satellite position, see the globe view (requires WebGL).

§ Visibility from observer

Set your observer location to see the next 7 days of passes ≥ 10°. The values pass through the URL so the page stays shareable.

No JS? Fill the form by hand. The geolocation button needs JavaScript.